Regional Weather Roundup
Issued by NWS Mobile, AL

Home | Current Version | Previous Version | Text Only | Print | Product List | Glossary On
Versions: 1 2 3 4 5 6 7 8 9 10 11 12 13 14 15 16 17 18 19 20 21 22 23 24 25 26 27 28 29 30 31 32 33 34 35 36 37 38 39 40 41 42 43 44 45 46 47 48 49 50
000
ASUS44 KMOB 221413
RWRMOB
REGIONAL WEATHER ROUNDUP
NATIONAL WEATHER SERVICE MOBILE AL
800 AM CST MON JAN 22 2018

NOTE: "FAIR" INDICATES FEW OR NO CLOUDS BELOW 12,000 FEET WITH NO
      SIGNIFICANT WEATHER AND/OR OBSTRUCTIONS TO VISIBILITY.

  * THESE STATIONS ARE PART OF THE UNIVERSITY OF SOUTH ALABAMA
    MESONET AND ARE NOT UNDER NWS OR FAA QUALITY CONTROL.

ALZ061>064-221500-
COASTAL ALABAMA

CITY           SKY/WX    TMP DP  RH WIND       PRES   REMARKS
MOBILE REG APT CLOUDY    63  62  97 SE9       30.01S FOG
BROOKLEY FIELD CLOUDY    64  63  96 S12       30.02R
USA CAMPUS*    NOT AVBL
DOG RIVER*     NOT AVBL


CITY           SKY/WX    TMP DP  RH WIND       PRES   REMARKS
GULF SHORES    PTSUNNY   66  65  99 SE8       30.02S

$$

ALZ051>060-221500-
INTERIOR SOUTHWEST AND SOUTH CENTRAL ALABAMA

CITY           SKY/WX    TMP DP  RH WIND       PRES   REMARKS
GREENVILLE     CLOUDY    53  46  77 SE5       30.04F
EVERGREEN      CLOUDY    53  49  86 CALM      30.04R
ATMORE*          N/A    N/A N/A N/A SE5         N/A
ANDALUSIA/OPP  CLOUDY    56  49  77 VRB3      30.06R
ANDALUSIA*       N/A     54  50  87 E8        30.04S
FLORALA APT    FAIR      52  47  83 CALM      30.08R
FLORALA*         N/A     55  52  88 CALM      30.76S

$$

FLZ001>006-221500-
WESTERN FLORIDA PANHANDLE

CITY           SKY/WX    TMP DP  RH WIND       PRES   REMARKS
PENSACOLA      PTSUNNY   65  62  90 SE14      30.03S
NAS PENSACOLA  CLOUDY    66  63  90 S9        30.02F
MILTON         PTSUNNY   57  56  96 SE10      30.01F FOG
WHTNG S FIELD  PTSUNNY   61  58  90 SE10      30.02F FOG


CITY           SKY/WX    TMP DP  RH WIND       PRES   REMARKS
JAY*             N/A     57  57 100 SE7       30.04R
DUKE FIELD     PTSUNNY   57  54  88 SE6       30.05R
CRESTVIEW      PTSUNNY   58  54  86 VRB3      30.08R
VALPARAISO     CLOUDY    57  54  90 E7        30.05R
DESTIN         CLOUDY    65  60  84 SE8       30.06R

$$

MSZ076-079-221500-
INTERIOR SOUTHEAST MISSISSIPPI

CITY           SKY/WX    TMP DP  RH WIND       PRES   REMARKS
LEAKESVILLE*     N/A     63  63 100 SE6       30.00
AGRICOLA*      NOT AVBL

$$

MARINE OBSERVATIONS

STATION/POSITION TIME  TEMP    WIND        PRES    WAVE
                       AIR SEA DIR/SP/G            HT/PER
                 (UTC) (F)     (DEG/KT/KT) (MB)    (FT/S)
PASCAGOULA       1348   63     140/ 13/ 16 1015.4S
PETIT BOIS ISLND 1348   61     130/  8/ 10 1016.6R
GRAND BAY        1230   58     110/  7     1016.0S
KATRINA CUT      1330   56     140/ 10     1016.3R
CEDAR POINT      1330   56     130/  6     1016.3R
E DAUPHIN ISLAND 1400   61     140/  6/  6 1016.0R
MIDDLE BAY LIGHT 1330   56     130/ 15     1016.3R
USCG MOBILE BAY  1348   61 52  180/  7/ 11 1016.3R
STATE DOCKS      1336   60 50              1016.0R
MEAHER PARK      1200   63     130/  6     1016.3
WEEKS BAY        1245   66                 1016.0S
FORT MORGAN      1348   64     170/ 13/ 14   N/A
12 S ORANGE BCH  NOT AVBL
PENSACOLA BAY    1336   64 49   CALM  /  3 1017.3R
64 S DAUPHIN ISL 1400   71 66  170/ 16/ 19 1016.1
67 S FORT MORGAN 1330   71                 1016.9R

$$

SELECTED LOCATIONS ACROSS THE REGION

CITY           SKY/WX    TMP DP  RH WIND       PRES   REMARKS
NEW ORLEANS    CLOUDY    63  63 100 S8        29.95F FOG
GULFPORT       CLOUDY    62  60  93 SE9       29.98S FOG
PASCAGOULA AP  PTSUNNY   65  62  90 SE8       30.00S FOG
PASCAGOULA*      N/A     57  55  94 SE6         N/A
HATTIESBURG    FAIR      61  61 100 S7        29.95F
LAUREL         FAIR      60  59  96 S12       29.94F
MERIDIAN       CLOUDY    62  59  90 S12       29.94F
JACKSON        TSTM      59  58  96 S9        29.89S FOG
MONTGOMERY     PTSUNNY   51  42  71 E6        30.06F
TROY           CLOUDY    55  49  80 S3        30.08R
ASHFORD*         N/A     54  50  87 E8        30.04S
DOTHAN         CLOUDY    57  55  93 SE7       30.11R
PANAMA CITY    CLOUDY    58  56  93 E7        30.06R

$$




USA.gov is the U.S. government's official web portal to all federal, state and local government web resources and services.